Location: Novo Ouro Preto
(19.8840°S, 43.9844°W)
Time: 09:47:13
(UTC+00:00)

Cosmos 1378 - Pass Details

Date: 18 September 2020
Orbit: 492 x 501 km, 82.5° (Epoch: 20 October)

Event Time Altitude Azimuth Distance (km) Brightness Sun altitude
Rises 21:47:11 0° 354° (N) 2,562 6.8 -14.0°
Reaches altitude 10° 21:49:16 10° 352° (N) 1,689 5.9 -14.5°
Maximum altitude 21:52:58 80° 266° (W) 513 3.2 -15.3°
Drops below altitude 10° 21:56:43 10° 178° (S) 1,717 5.9 -16.2°
Sets 21:58:52 0° 176° (S) 2,609 6.8 -16.7°
